Time,TemperatureF,DewpointF,PressureIn,WindDirection,WindDirectionDegrees,WindSpeedMPH,WindSpeedGustMPH,Humidity,HourlyPrecipIn,Conditions,Clouds,dailyrainin,SoftwareType,DateUTC
2013-06-19 00:01:00,70.0,59.0,29.64,North,0,0.0,-999.0,68,-99.99,,,-99.99,,2013-06-19 05:01:00,
2013-06-19 00:11:00,70.0,57.0,29.64,WNW,295,3.0,-999.0,64,-99.99,,,-99.99,,2013-06-19 05:11:00,
2013-06-19 00:22:00,70.0,59.0,29.65,North,0,0.0,-999.0,68,-99.99,,,-99.99,,2013-06-19 05:22:00,
2013-06-19 00:32:00,70.0,59.0,29.65,North,0,0.0,-999.0,68,-99.99,,,-99.99,,2013-06-19 05:32:00,
2013-06-19 00:42:00,70.0,57.0,29.65,North,0,0.0,-999.0,64,-99.99,,,-99.99,,2013-06-19 05:42:00,
2013-06-19 00:52:00,70.0,57.0,29.65,North,0,0.0,-999.0,64,-99.99,,,-99.99,,2013-06-19 05:52:00,
2013-06-19 01:01:00,70.0,59.0,29.65,North,0,0.0,-999.0,68,-99.99,,,-99.99,,2013-06-19 06:01:00,
2013-06-19 01:11:00,70.0,59.0,29.65,North,0,0.0,-999.0,68,-99.99,,,-99.99,,2013-06-19 06:11:00,
2013-06-19 01:21:00,68.0,59.0,29.66,North,0,5.0,-999.0,72,-99.99,,,-99.99,,2013-06-19 06:21:00,
2013-06-19 01:33:00,68.0,57.0,29.65,NNW,334,12.0,-999.0,68,-99.99,,,-99.99,,2013-06-19 06:33:00,
2013-06-19 01:42:00,70.0,57.0,29.64,NNW,335,9.0,-999.0,64,-99.99,,,-99.99,,2013-06-19 06:42:00,
2013-06-19 01:52:00,70.0,59.0,29.64,NNW,335,9.0,-999.0,68,-99.99,,,-99.99,,2013-06-19 06:52:00,
2013-06-19 02:01:00,68.0,59.0,29.64,NNW,335,9.0,-999.0,72,-99.99,,,-99.99,,2013-06-19 07:01:00,
2013-06-19 02:11:00,68.0,61.0,29.64,NNW,335,6.0,-999.0,77,-99.99,,,-99.99,,2013-06-19 07:11:00,
2013-06-19 02:22:00,66.0,61.0,29.63,NW,315,5.0,-999.0,82,-99.99,,,-99.99,,2013-06-19 07:22:00,
2013-06-19 02:33:00,66.0,61.0,29.63,NW,315,7.0,-999.0,82,-99.99,,,-99.99,,2013-06-19 07:33:00,
2013-06-19 02:43:00,66.0,61.0,29.63,NW,315,6.0,-999.0,82,-99.99,,,-99.99,,2013-06-19 07:43:00,
2013-06-19 02:53:00,66.0,61.0,29.62,NW,315,6.0,-999.0,82,-99.99,,,-99.99,,2013-06-19 07:53:00,
2013-06-19 03:02:00,66.0,61.0,29.62,NW,315,6.0,-999.0,82,-99.99,,,-99.99,,2013-06-19 08:02:00,
2013-06-19 03:11:00,64.0,61.0,29.62,NW,315,6.0,-999.0,88,-99.99,,,-99.99,,2013-06-19 08:11:00,
2013-06-19 03:22:00,64.0,61.0,29.62,NW,315,7.0,-999.0,88,-99.99,,,-99.99,,2013-06-19 08:22:00,
2013-06-19 03:33:00,64.0,61.0,29.62,NNW,335,6.0,-999.0,88,-99.99,,,-99.99,,2013-06-19 08:33:00,
2013-06-19 03:43:00,64.0,61.0,29.62,NW,315,7.0,-999.0,88,-99.99,,,-99.99,,2013-06-19 08:43:00,
2013-06-19 03:53:00,64.0,61.0,29.62,NW,315,7.0,-999.0,88,-99.99,,,-99.99,,2013-06-19 08:53:00,
2013-06-19 04:02:00,64.0,61.0,29.62,NNW,335,5.0,-999.0,88,-99.99,,,-99.99,,2013-06-19 09:02:00,
2013-06-19 04:11:00,64.0,61.0,29.62,NW,315,5.0,-999.0,88,-99.99,,,-99.99,,2013-06-19 09:11:00,
2013-06-19 04:22:00,64.0,61.0,29.62,NNW,335,5.0,-999.0,88,-99.99,,,-99.99,,2013-06-19 09:22:00,
2013-06-19 04:34:00,63.0,61.0,29.62,NNW,335,5.0,-999.0,93,-99.99,,,-99.99,,2013-06-19 09:34:00,
2013-06-19 04:43:00,63.0,61.0,29.62,NNW,334,3.0,-999.0,93,-99.99,,,-99.99,,2013-06-19 09:43:00,
2013-06-19 04:53:00,63.0,61.0,29.63,NNW,334,3.0,-999.0,93,-99.99,,,-99.99,,2013-06-19 09:53:00,
2013-06-19 05:01:00,63.0,61.0,29.62,NNW,335,5.0,-999.0,93,-99.99,,,-99.99,,2013-06-19 10:01:00,
2013-06-19 05:11:00,63.0,61.0,29.62,NW,315,3.0,-999.0,93,-99.99,,,-99.99,,2013-06-19 10:11:00,
2013-06-19 05:22:00,63.0,59.0,29.63,North,0,0.0,-999.0,88,-99.99,,,-99.99,,2013-06-19 10:22:00,
2013-06-19 05:33:00,63.0,61.0,29.63,NNW,334,3.0,-999.0,93,-99.99,,,-99.99,,2013-06-19 10:33:00,
2013-06-19 05:42:00,61.0,59.0,29.64,North,0,0.0,-999.0,93,-99.99,,,-99.99,,2013-06-19 10:42:00,
2013-06-19 05:52:00,61.0,59.0,29.63,North,0,0.0,-999.0,93,-99.99,,,-99.99,,2013-06-19 10:52:00,
2013-06-19 06:02:00,61.0,59.0,29.64,NW,315,3.0,-999.0,93,-99.99,,,-99.99,,2013-06-19 11:02:00,
2013-06-19 06:11:00,61.0,59.0,29.64,NW,315,5.0,-999.0,93,-99.99,,,-99.99,,2013-06-19 11:11:00,
2013-06-19 06:22:00,63.0,61.0,29.64,NNW,335,5.0,-999.0,93,-99.99,,,-99.99,,2013-06-19 11:22:00,
2013-06-19 06:33:00,61.0,59.0,29.64,NNW,335,6.0,-999.0,93,-99.99,,,-99.99,,2013-06-19 11:33:00,
2013-06-19 06:42:00,61.0,59.0,29.64,NNW,335,5.0,-999.0,93,-99.99,,,-99.99,,2013-06-19 11:42:00,
2013-06-19 06:54:00,63.0,61.0,29.65,NNW,334,8.0,-999.0,93,-99.99,,,-99.99,,2013-06-19 11:54:00,
2013-06-19 07:01:00,63.0,61.0,29.65,NNW,335,6.0,-999.0,93,-99.99,,,-99.99,,2013-06-19 12:01:00,
2013-06-19 07:11:00,63.0,61.0,29.65,NNW,335,6.0,-999.0,93,-99.99,,,-99.99,,2013-06-19 12:11:00,
2013-06-19 07:22:00,63.0,61.0,29.65,NNW,335,5.0,-999.0,93,-99.99,,,-99.99,,2013-06-19 12:22:00,
2013-06-19 07:34:00,64.0,61.0,29.65,North,0,6.0,-999.0,88,-99.99,,,-99.99,,2013-06-19 12:34:00,
2013-06-19 07:44:00,64.0,61.0,29.66,North,0,5.0,-999.0,88,-99.99,,,-99.99,,2013-06-19 12:44:00,
2013-06-19 07:52:00,66.0,61.0,29.65,NNW,334,7.0,-999.0,82,-99.99,,,-99.99,,2013-06-19 12:52:00,
2013-06-19 08:02:00,66.0,63.0,29.65,North,0,7.0,-999.0,88,-99.99,,,-99.99,,2013-06-19 13:02:00,
2013-06-19 08:11:00,68.0,63.0,29.65,NNE,25,8.0,-999.0,82,-99.99,,,-99.99,,2013-06-19 13:11:00,
2013-06-19 08:22:00,70.0,63.0,29.65,North,0,6.0,-999.0,77,-99.99,,,-99.99,,2013-06-19 13:22:00,
2013-06-19 08:33:00,70.0,63.0,29.65,North,0,8.0,-999.0,77,-99.99,,,-99.99,,2013-06-19 13:33:00,
2013-06-19 08:42:00,72.0,63.0,29.65,NNE,24,10.0,-999.0,73,-99.99,,,-99.99,,2013-06-19 13:42:00,
2013-06-19 08:53:00,72.0,63.0,29.65,NNE,24,9.0,-999.0,73,-99.99,,,-99.99,,2013-06-19 13:53:00,
2013-06-19 09:02:00,73.0,63.0,29.64,North,0,7.0,-999.0,68,-99.99,,,-99.99,,2013-06-19 14:02:00,
2013-06-19 09:11:00,73.0,64.0,29.64,North,0,8.0,-999.0,73,-99.99,,,-99.99,,2013-06-19 14:11:00,
2013-06-19 09:22:00,75.0,64.0,29.64,NNW,334,8.0,-999.0,69,-99.99,,,-99.99,,2013-06-19 14:22:00,
2013-06-19 09:33:00,75.0,64.0,29.64,NNE,25,8.0,-999.0,69,-99.99,,,-99.99,,2013-06-19 14:33:00,
2013-06-19 09:43:00,75.0,64.0,29.63,NW,315,12.0,-999.0,69,-99.99,,,-99.99,,2013-06-19 14:43:00,
2013-06-19 09:52:00,77.0,64.0,29.63,NNE,25,7.0,-999.0,65,-99.99,,,-99.99,,2013-06-19 14:52:00,
2013-06-19 10:01:00,77.0,63.0,29.63,NNW,334,16.0,-999.0,61,-99.99,,,-99.99,,2013-06-19 15:01:00,
2013-06-19 10:11:00,79.0,63.0,29.63,NNW,334,13.0,-999.0,57,-99.99,,,-99.99,,2013-06-19 15:11:00,
2013-06-19 10:22:00,79.0,63.0,29.62,North,0,12.0,-999.0,57,-99.99,,,-99.99,,2013-06-19 15:22:00,
2013-06-19 10:33:00,79.0,63.0,29.62,NW,315,13.0,-999.0,57,-99.99,,,-99.99,,2013-06-19 15:33:00,
2013-06-19 10:42:00,79.0,63.0,29.61,NNW,334,17.0,-999.0,57,-99.99,,,-99.99,,2013-06-19 15:42:00,
2013-06-19 10:53:00,79.0,61.0,29.62,NE,45,10.0,-999.0,54,-99.99,,,-99.99,,2013-06-19 15:53:00,
2013-06-19 11:01:00,81.0,61.0,29.61,NNW,335,15.0,-999.0,50,-99.99,,,-99.99,,2013-06-19 16:01:00,
2013-06-19 11:11:00,81.0,61.0,29.61,NNE,25,13.0,-999.0,50,-99.99,,,-99.99,,2013-06-19 16:11:00,
2013-06-19 11:22:00,81.0,59.0,29.61,NNW,335,18.0,-999.0,47,-99.99,,,-99.99,,2013-06-19 16:22:00,
2013-06-19 11:33:00,81.0,59.0,29.61,NW,315,12.0,-999.0,47,-99.99,,,-99.99,,2013-06-19 16:33:00,
2013-06-19 11:43:00,81.0,59.0,29.60,North,0,10.0,-999.0,47,-99.99,,,-99.99,,2013-06-19 16:43:00,
2013-06-19 11:52:00,82.0,61.0,29.61,NNW,335,14.0,-999.0,48,-99.99,,,-99.99,,2013-06-19 16:52:00,
2013-06-19 12:02:00,82.0,59.0,29.61,NNW,334,12.0,-999.0,45,-99.99,,,-99.99,,2013-06-19 17:02:00,
2013-06-19 12:11:00,82.0,61.0,29.61,NNE,25,13.0,-999.0,48,-99.99,,,-99.99,,2013-06-19 17:11:00,
2013-06-19 12:22:00,82.0,61.0,29.60,North,0,12.0,-999.0,48,-99.99,,,-99.99,,2013-06-19 17:22:00,
2013-06-19 12:34:00,82.0,61.0,29.60,North,0,16.0,-999.0,48,-99.99,,,-99.99,,2013-06-19 17:34:00,
2013-06-19 12:43:00,82.0,61.0,29.60,NNW,335,15.0,-999.0,48,-99.99,,,-99.99,,2013-06-19 17:43:00,
2013-06-19 12:53:00,82.0,61.0,29.60,NNW,334,12.0,-999.0,48,-99.99,,,-99.99,,2013-06-19 17:53:00,
2013-06-19 13:01:00,82.0,61.0,29.60,North,0,16.0,-999.0,48,-99.99,,,-99.99,,2013-06-19 18:01:00,
2013-06-19 13:11:00,82.0,61.0,29.60,NNE,25,13.0,-999.0,48,-99.99,,,-99.99,,2013-06-19 18:11:00,
2013-06-19 13:23:00,84.0,63.0,29.59,North,0,12.0,-999.0,48,-99.99,,,-99.99,,2013-06-19 18:23:00,
2013-06-19 13:33:00,84.0,63.0,29.59,North,0,13.0,-999.0,48,-99.99,,,-99.99,,2013-06-19 18:33:00,
2013-06-19 13:44:00,84.0,63.0,29.59,NNW,335,18.0,-999.0,48,-99.99,,,-99.99,,2013-06-19 18:44:00,
2013-06-19 13:53:00,84.0,63.0,29.58,NNE,24,14.0,-999.0,48,-99.99,,,-99.99,,2013-06-19 18:53:00,
2013-06-19 14:01:00,84.0,63.0,29.57,North,0,13.0,-999.0,48,-99.99,,,-99.99,,2013-06-19 19:01:00,
2013-06-19 14:11:00,84.0,63.0,29.57,NW,315,20.0,-999.0,48,-99.99,,,-99.99,,2013-06-19 19:11:00,
2013-06-19 14:22:00,84.0,63.0,29.57,North,0,18.0,-999.0,48,-99.99,,,-99.99,,2013-06-19 19:22:00,
2013-06-19 14:32:00,84.0,63.0,29.57,NNW,334,16.0,-999.0,48,-99.99,,,-99.99,,2013-06-19 19:32:00,
2013-06-19 14:43:00,84.0,63.0,29.57,NNW,335,20.0,-999.0,48,-99.99,,,-99.99,,2013-06-19 19:43:00,
2013-06-19 14:52:00,84.0,63.0,29.56,North,0,17.0,-999.0,48,-99.99,,,-99.99,,2013-06-19 19:52:00,
2013-06-19 15:02:00,84.0,63.0,29.56,North,0,17.0,-999.0,48,-99.99,,,-99.99,,2013-06-19 20:02:00,
2013-06-19 15:11:00,84.0,63.0,29.56,North,0,12.0,-999.0,48,-99.99,,,-99.99,,2013-06-19 20:11:00,
2013-06-19 15:22:00,84.0,63.0,29.56,NNE,25,17.0,-999.0,48,-99.99,,,-99.99,,2013-06-19 20:22:00,
2013-06-19 15:33:00,84.0,63.0,29.56,North,0,15.0,-999.0,48,-99.99,,,-99.99,,2013-06-19 20:33:00,
2013-06-19 15:42:00,84.0,63.0,29.56,North,0,12.0,-999.0,48,-99.99,,,-99.99,,2013-06-19 20:42:00,
2013-06-19 15:52:00,84.0,63.0,29.55,NNE,25,12.0,-999.0,48,-99.99,,,-99.99,,2013-06-19 20:52:00,
2013-06-19 16:02:00,84.0,63.0,29.55,NNE,24,10.0,-999.0,48,-99.99,,,-99.99,,2013-06-19 21:02:00,
2013-06-19 16:11:00,86.0,63.0,29.55,NNW,334,16.0,-999.0,45,-99.99,,,-99.99,,2013-06-19 21:11:00,
2013-06-19 16:22:00,84.0,63.0,29.55,NNW,334,12.0,-999.0,48,-99.99,,,-99.99,,2013-06-19 21:22:00,
2013-06-19 16:33:00,84.0,63.0,29.54,NE,45,13.0,-999.0,48,-99.99,,,-99.99,,2013-06-19 21:33:00,
2013-06-19 16:44:00,84.0,63.0,29.54,NNW,335,9.0,-999.0,48,-99.99,,,-99.99,,2013-06-19 21:44:00,
2013-06-19 16:52:00,84.0,63.0,29.54,North,0,17.0,-999.0,48,-99.99,,,-99.99,,2013-06-19 21:52:00,
2013-06-19 17:01:00,84.0,63.0,29.54,North,0,17.0,-999.0,48,-99.99,,,-99.99,,2013-06-19 22:01:00,
2013-06-19 17:11:00,84.0,63.0,29.54,North,0,12.0,-999.0,48,-99.99,,,-99.99,,2013-06-19 22:11:00,
2013-06-19 17:22:00,84.0,64.0,29.53,NNW,334,16.0,-999.0,51,-99.99,,,-99.99,,2013-06-19 22:22:00,
2013-06-19 17:34:00,84.0,64.0,29.53,North,0,14.0,-999.0,51,-99.99,,,-99.99,,2013-06-19 22:34:00,
2013-06-19 17:42:00,84.0,64.0,29.53,North,0,18.0,-999.0,51,-99.99,,,-99.99,,2013-06-19 22:42:00,
2013-06-19 17:53:00,84.0,66.0,29.53,North,0,17.0,-999.0,54,-99.99,,,-99.99,,2013-06-19 22:53:00,
2013-06-19 18:02:00,81.0,66.0,29.53,North,0,10.0,-999.0,61,-99.99,,,-99.99,,2013-06-19 23:02:00,
2013-06-19 18:12:00,81.0,68.0,29.52,NW,315,12.0,-999.0,65,-99.99,,,-99.99,,2013-06-19 23:12:00,
2013-06-19 18:23:00,81.0,66.0,29.52,NW,315,10.0,-999.0,61,-99.99,,,-99.99,,2013-06-19 23:23:00,
2013-06-19 18:33:00,81.0,68.0,29.52,NNW,335,10.0,-999.0,65,-99.99,,,-99.99,,2013-06-19 23:33:00,
2013-06-19 18:43:00,82.0,70.0,29.52,NW,315,8.0,-999.0,65,-99.99,,,-99.99,,2013-06-19 23:43:00,
2013-06-19 18:52:00,81.0,70.0,29.52,WNW,295,8.0,-999.0,69,-99.99,,,-99.99,,2013-06-19 23:52:00,
2013-06-19 19:01:00,81.0,70.0,29.52,NNW,335,6.0,-999.0,69,-99.99,,,-99.99,,2013-06-20 00:01:00,
2013-06-19 19:12:00,81.0,68.0,29.52,NNW,334,12.0,-999.0,65,-99.99,,,-99.99,,2013-06-20 00:12:00,
2013-06-19 19:22:00,82.0,68.0,29.52,NNW,334,13.0,-999.0,61,-99.99,,,-99.99,,2013-06-20 00:22:00,
2013-06-19 19:33:00,82.0,68.0,29.52,NNW,335,10.0,-999.0,61,-99.99,,,-99.99,,2013-06-20 00:33:00,
2013-06-19 19:44:00,82.0,66.0,29.52,NNW,334,12.0,-999.0,58,-99.99,,,-99.99,,2013-06-20 00:44:00,
2013-06-19 19:52:00,82.0,68.0,29.52,NNW,334,12.0,-999.0,61,-99.99,,,-99.99,,2013-06-20 00:52:00,
2013-06-19 20:02:00,82.0,68.0,29.52,NNW,334,12.0,-999.0,61,-99.99,,,-99.99,,2013-06-20 01:02:00,
2013-06-19 20:11:00,82.0,68.0,29.52,NNW,335,9.0,-999.0,61,-99.99,,,-99.99,,2013-06-20 01:11:00,
2013-06-19 20:22:00,82.0,66.0,29.52,NNW,335,9.0,-999.0,58,-99.99,,,-99.99,,2013-06-20 01:22:00,
2013-06-19 20:33:00,82.0,68.0,29.52,NNW,334,12.0,-999.0,61,-99.99,,,-99.99,,2013-06-20 01:33:00,
2013-06-19 20:44:00,81.0,66.0,29.52,NNW,335,10.0,-999.0,61,-99.99,,,-99.99,,2013-06-20 01:44:00,
2013-06-19 20:52:00,81.0,66.0,29.52,NW,315,12.0,-999.0,61,-99.99,,,-99.99,,2013-06-20 01:52:00,
2013-06-19 21:02:00,81.0,68.0,29.51,NW,315,10.0,-999.0,65,-99.99,,,-99.99,,2013-06-20 02:02:00,
2013-06-19 21:11:00,81.0,68.0,29.52,NNW,334,12.0,-999.0,65,-99.99,,,-99.99,,2013-06-20 02:11:00,
2013-06-19 21:24:00,81.0,68.0,29.52,NNW,335,14.0,-999.0,65,-99.99,,,-99.99,,2013-06-20 02:24:00,
2013-06-19 21:33:00,81.0,68.0,29.52,NW,315,15.0,-999.0,65,-99.99,,,-99.99,,2013-06-20 02:33:00,
2013-06-19 21:43:00,79.0,68.0,29.52,NNW,334,13.0,-999.0,69,-99.99,,,-99.99,,2013-06-20 02:43:00,
2013-06-19 21:52:00,79.0,68.0,29.52,NNW,334,13.0,-999.0,69,-99.99,,,-99.99,,2013-06-20 02:52:00,
2013-06-19 22:02:00,79.0,70.0,29.52,NNW,334,12.0,-999.0,73,-99.99,,,-99.99,,2013-06-20 03:02:00,
2013-06-19 22:11:00,79.0,68.0,29.53,NNW,335,9.0,-999.0,69,-99.99,,,-99.99,,2013-06-20 03:11:00,
2013-06-19 22:22:00,79.0,68.0,29.53,NW,315,14.0,-999.0,69,-99.99,,,-99.99,,2013-06-20 03:22:00,
2013-06-19 22:33:00,79.0,68.0,29.54,NW,315,16.0,-999.0,69,-99.99,,,-99.99,,2013-06-20 03:33:00,
2013-06-19 22:43:00,79.0,68.0,29.54,NNW,334,12.0,-999.0,69,-99.99,,,-99.99,,2013-06-20 03:43:00,
2013-06-19 22:53:00,79.0,68.0,29.54,NNW,335,15.0,-999.0,69,-99.99,,,-99.99,,2013-06-20 03:53:00,
2013-06-19 23:01:00,79.0,66.0,29.55,NNE,25,13.0,-999.0,65,-99.99,,,-99.99,,2013-06-20 04:01:00,
2013-06-19 23:11:00,77.0,66.0,29.55,NNW,334,13.0,-999.0,69,-99.99,,,-99.99,,2013-06-20 04:11:00,
2013-06-19 23:22:00,77.0,66.0,29.55,NW,315,12.0,-999.0,69,-99.99,,,-99.99,,2013-06-20 04:22:00,
2013-06-19 23:33:00,75.0,66.0,29.55,NNW,335,14.0,-999.0,73,-99.99,,,-99.99,,2013-06-20 04:33:00,
2013-06-19 23:43:00,75.0,66.0,29.55,NNW,335,14.0,-999.0,73,-99.99,,,-99.99,,2013-06-20 04:43:00,
2013-06-19 23:53:00,75.0,66.0,29.55,NNW,335,14.0,-999.0,73,-99.99,,,-99.99,,2013-06-20 04:53:00,